Les Deux-Alpes, France 16 day weather forecast

Slopes altitude range 1300 m - 3570m

Number of lifts: 51 Pistes: 225km

In some cases the lift and piste totals shown are for the ski domain (e.g. Three Valleys) rather than individual resort (e.g. Courchevel)

Overview

The 16 day weather forecast is fully updated 4 times every day.

    • Sun 17 FEB 2019
    • Sun 17
    • -3C 6C
    • Mon 18 FEB 2019
    • Mon 18
    • -3C 5C
    • Tue 19 FEB 2019
    • Tue 19
    • -4C 4C
    • Wed 20 FEB 2019
    • Wed 20
    • -3C 5C
    • Thu 21 FEB 2019
    • Thu 21
    • -2C 5C
    • Fri 22 FEB 2019
    • Fri 22
    • -1C 6C
    • Sat 23 FEB 2019
    • Sat 23
    • 0C 6C
    • Sun 24 FEB 2019
    • Sun 24
    • -1C 8C
    • Mon 25 FEB 2019
    • Mon 25
    • 1C 9C
    • Tue 26 FEB 2019
    • Tue 26
    • 2C 11C
    • Wed 27 FEB 2019
    • Wed 27
    • 3C 11C
    • Thu 28 FEB 2019
    • Thu 28
    • 2C 11C
    • Fri 01 MAR 2019
    • Fri 01
    • 2C 10C
    • Sat 02 MAR 2019
    • Sat 02
    • 1C 8C
    • Sun 03 MAR 2019
    • Sun 03
    • 1C 9C
    • Mon 04 MAR 2019
    • Mon 04
    • 0C 8C

Date:

Time Type 0°C level Temp Chill Snow Cloud Speed Gust Dir Press
12:00 2854m 6°C 6_4 0cm 0% 4mph 6mph 1026mB
15:00 2783m 6°C 6_4 0cm 0% 4mph 5mph 1025mB
18:00 2589m 6°C 6_6 0cm 0% 6mph 6mph 1026mB
21:00 1419m -2°C -2_6 0cm 0% 6mph 7mph 1027mB
0:00 1336m -2°C -2_6 0cm 0% 6mph 7mph 1027mB
3:00 1296m -3°C -3_6 0cm 0% 6mph 7mph 1026mB
6:00 1243m -3°C -3_6 0cm 0% 6mph 7mph 1026mB
9:00 2573m -3°C -3_5 0cm 0% 5mph 7mph 1025mB
12:00 2484m 5°C 5_4 0cm 18% 4mph 8mph 1023mB
15:00 2342m 6°C 6_4 0cm 60% 4mph 6mph 1022mB
18:00 1392m 6°C 6_5 0cm 59% 5mph 6mph 1024mB
21:00 1184m -3°C -3_5 0cm 56% 5mph 6mph 1025mB
0:00 1120m -4°C -4_5 0cm 60% 5mph 6mph 1025mB
3:00 1099m -4°C -4_5 0cm 72% 5mph 5mph 1025mB
6:00 1080m -4°C -4_4 0cm 69% 4mph 5mph 1025mB
9:00 1983m -4°C -4_2 0cm 85% 2mph 3mph 1025mB
12:00 2008m 4°C 4_3 0cm 73% 3mph 3mph 1023mB
15:00 2045m 4°C 4_3 0cm 31% 3mph 3mph 1021mB
18:00 1394m 4°C 4_3 0cm 28% 3mph 4mph 1023mB
21:00 1316m -2°C -2_4 0cm 0% 4mph 4mph 1025mB
0:00 1292m -3°C -3_4 0cm 0% 4mph 5mph 1025mB
3:00 1267m -3°C -3_4 0cm 7% 4mph 5mph 1025mB
6:00 1244m -3°C -3_4 0cm 18% 4mph 5mph 1026mB
9:00 2068m -3°C -3_2 0cm 54% 2mph 2mph 1026mB
12:00 2134m 5°C 5_2 0cm 60% 2mph 2mph 1025mB
15:00 2124m 5°C 5_3 0cm 33% 3mph 4mph 1024mB
18:00 1511m 5°C 5_4 0cm 18% 4mph 5mph 1026mB
21:00 1466m -1°C -1_4 0cm 31% 4mph 5mph 1028mB
0:00 1456m -1°C -1_3 0cm 41% 3mph 4mph 1028mB
3:00 1434m -2°C -2_4 0cm 53% 4mph 4mph 1028mB
6:00 1424m -2°C -2_4 0cm 49% 4mph 4mph 1029mB
9:00 2301m -2°C -2_2 0cm 60% 2mph 3mph 1029mB
12:00 2268m 5°C 5_3 0cm 67% 3mph 3mph 1028mB
15:00 2251m 5°C 5_3 0cm 77% 3mph 4mph 1027mB
18:00 2204m 5°C 5_4 0cm 75% 4mph 5mph 1029mB
21:00 2337m 0°C 0_4 0cm 80% 4mph 5mph 1030mB
0:00 1909m 0°C 0_5 0cm 85% 5mph 6mph 1030mB
3:00 1586m -1°C -1_5 0cm 29% 5mph 7mph 1029mB
6:00 1513m -1°C -1_6 0cm 15% 6mph 8mph 1029mB
9:00 3089m -1°C -1_7 0cm 9% 7mph 12mph 1028mB
12:00 3204m 6°C 6_6 0cm 5% 6mph 9mph 1026mB
15:00 3095m 6°C 6_6 0cm 0% 6mph 9mph 1025mB
18:00 3046m 6°C 6_5 0cm 0% 5mph 7mph 1026mB
21:00 2886m 0°C 0_5 0cm 0% 5mph 6mph 1029mB
0:00 2548m 0°C 0_6 0cm 0% 6mph 6mph 1030mB
3:00 2310m 0°C 0_5 0cm 0% 5mph 5mph 1031mB
6:00 1812m 0°C 0_4 0cm 0% 4mph 5mph 1032mB
9:00 2261m 0°C 0_2 0cm 0% 2mph 3mph 1033mB
12:00 2261m 6°C 6_3 0cm 0% 3mph 4mph 1032mB
15:00 2281m 6°C 6_4 0cm 0% 4mph 5mph 1031mB
18:00 2260m 6°C 6_3 0cm 0% 3mph 4mph 1033mB
21:00 2372m 1°C 1_4 0cm 1% 4mph 5mph 1035mB
0:00 2267m 0°C 0_5 0cm 1% 5mph 5mph 1036mB
3:00 2164m 0°C 0_5 0cm 1% 5mph 5mph 1037mB
6:00 1611m 0°C 0_5 0cm 1% 5mph 6mph 1037mB
9:00 2780m -1°C -1_4 0cm 0% 4mph 5mph 1038mB
12:00 2720m 8°C 8_2 0cm 0% 2mph 3mph 1036mB
15:00 2822m 8°C 8_4 0cm 0% 4mph 5mph 1035mB
18:00 3128m 8°C 8_4 0cm 0% 4mph 5mph 1036mB
21:00 3266m 2°C 2_4 0cm 3% 4mph 5mph 1036mB
0:00 3280m 2°C 2_4 0cm 12% 4mph 5mph 1036mB
3:00 3403m 1°C 1_4 0cm 7% 4mph 4mph 1035mB
6:00 3505m 1°C 1_4 0cm 3% 4mph 4mph 1035mB
9:00 3527m 1°C 1_2 0cm 0% 2mph 3mph 1035mB
12:00 3560m 9°C 9_3 0cm 0% 3mph 3mph 1033mB
15:00 3581m 9°C 9_3 0cm 0% 3mph 4mph 1031mB
18:00 3625m 9°C 9_5 0cm 0% 5mph 6mph 1031mB
21:00 3689m 3°C 3_5 0cm 0% 5mph 6mph 1031mB
0:00 3745m 2°C 2_5 0cm 0% 5mph 6mph 1029mB
3:00 3644m 2°C 2_5 0cm 0% 5mph 6mph 1027mB
6:00 3515m 2°C 2_5 0cm 0% 5mph 6mph 1027mB
9:00 3296m 2°C 2_3 0cm 0% 3mph 3mph 1027mB
12:00 3153m 11°C 11_2 0cm 0% 2mph 3mph 1026mB
15:00 3016m 11°C 11_3 0cm 0% 3mph 3mph 1026mB
18:00 2945m 11°C 11_3 0cm 0% 3mph 3mph 1027mB
21:00 2981m 3°C 3_3 0cm 0% 3mph 4mph 1029mB
0:00 2950m 3°C 3_3 0cm 0% 3mph 4mph 1030mB
3:00 2904m 2°C 2_3 0cm 0% 3mph 4mph 1030mB
6:00 2886m 2°C 2_4 0cm 0% 4mph 5mph 1031mB
Afternoon 0mm 0 2836m 11°C 11_2 0cm 0% 2mph 2mph 1032mB
Morning 0mm 0 2948m 2°C 2_4 0cm 0% 4mph 4mph 1033mB
Afternoon 0mm 0 3052m 11°C 11_4 0cm 0% 4mph 5mph 1030mB
Morning 0mm 0 3003m 2°C 2_4 0cm 0% 4mph 5mph 1030mB
Afternoon 0mm 0 2754m 10°C 10_4 0cm 0% 4mph 5mph 1029mB
Morning 0mm 0 2409m 1°C 1_5 0cm 0% 5mph 6mph 1032mB
Afternoon 0mm 0 2405m 8°C 8_4 0cm 2% 4mph 7mph 1032mB
Morning 0mm 0 2321m 1°C 1_5 0cm 2% 5mph 6mph 1036mB
Afternoon 0.00520833mm 0.0625 2296m 9°C 9_2 0cm 61% 2mph 3mph 1034mB
Morning 0mm 0 2133m 0°C 0_5 0cm 7% 5mph 6mph 1033mB
Afternoon 0mm 0 2096m 8°C 8_3 0cm 0% 3mph 5mph 1029mB
Morning 0mm 0 1460m -1°C -1_4 0cm 14% 4mph 5mph 1028mB

16 day outlook at a glance

Forecast issued: 2/17/2019 1:32:34 PM

Chat

Your comments and questions. In a resort? Let us know what it's like!


Characters left 250

For terms and conditions see Readers Comments on the Cookie and privacy policy page.